Tesla Return on Investment 2010-2022 | TSLA

Current and historical return on investment (ROI) values for Tesla (TSLA) over the last 10 years.
Tesla ROI - Return on Investment Historical Data
Date TTM Net Income LT Investments & Debt Return on Investment
2022-09-30 $12.37B $42.80B 31.45%
2022-06-30 $10.68B $40.14B 28.72%
2022-03-31 $9.53B $38.10B 26.81%
2021-12-31 $6.52B $36.26B 19.04%
2021-09-30 $4.49B $34.33B 13.44%
2021-06-30 $3.29B $33.52B 10.39%
2021-03-31 $2.31B $32.92B 8.07%
2020-12-31 $1.99B $32.68B 7.81%
2020-09-30 $1.78B $27.50B 8.03%
2020-06-30 $1.23B $21.18B 6.21%
2020-03-31 $0.74B $20.77B 3.88%
2019-12-31 $-0.07B $19.10B -0.39%
2019-09-30 $-0.01B $18.20B -0.08%
2019-06-30 $0.14B $17.81B 0.89%
2019-03-31 $-0.31B $15.26B -2.10%
2018-12-31 $-0.39B $15.16B -2.66%
2018-09-30 $-1.40B $14.98B -9.66%
2018-06-30 $-2.35B $14.24B -16.12%
2018-03-31 $-1.97B $14.08B -13.73%
2017-12-31 $-1.63B $14.65B -11.59%
2017-09-30 $-1.30B $15.36B -9.80%
2017-06-30 $-0.68B $13.34B -6.35%
2017-03-31 $-0.68B $12.96B -7.81%
2016-12-31 $-0.67B $11.42B -10.58%
2016-09-30 $-0.66B $5.14B -15.57%
2016-06-30 $-0.93B $5.18B -24.53%
2016-03-31 $-0.86B $3.50B -27.03%
2015-12-31 $-0.72B $3.15B -23.79%
2015-09-30 $-0.53B $3.34B -18.19%
2015-06-30 $-0.39B $2.77B -13.84%
2015-03-31 $-0.25B $2.78B -8.76%
2014-12-31 $-0.19B $2.79B -6.85%
2014-09-30 $-0.13B $2.82B -5.32%
2014-06-30 $-0.12B $2.80B -6.47%
2014-03-31 $-0.10B $2.52B -7.08%
2013-12-31 $-0.06B $1.27B -6.70%
2013-09-30 $-0.14B $0.65B -18.83%
2013-06-30 $-0.22B $1.22B -31.98%
2013-03-31 $-0.31B $0.57B -63.47%
2012-12-31 $-0.39B $0.54B -83.39%
2012-09-30 $-0.38B $0.39B -83.07%
2012-06-30 $-0.34B $0.46B -68.83%
2012-03-31 $-0.29B $0.50B -58.72%
2011-12-31 $-0.25B $0.50B -56.76%
2011-09-30 $-0.22B $0.52B -57.18%
2011-06-30 $-0.20B $0.48B -59.85%
2011-03-31 $-0.17B $0.27B -119.36%
2010-12-31 $-0.15B $0.28B -201.37%
2010-06-30 $-0.06B $-0.26B 92.42%
2010-03-31 $-0.04B inf%
Sector Industry Market Cap Revenue
Auto/Tires/Trucks Auto Manufacturers - Domestic $615.320B $53.823B
Tesla is the market leader in battery-powered electric car sales in the United States, with roughly 70% market share. The company's flagship Model 3 is the best-selling EV model in the United States. Tesla, which has managed to garner the reputation of a gold standard over the years, is now a far bigger entity that what it started off since its IPO in 2010, with its market cap crossing $1 trillion for the first time in October 2021.? The EV king's market capitalization is more than the combined value of legacy automakers including Toyota, Volkswagen, Daimler, General Motors and Ford.Over the years, Tesla has shifted from developing niche products for affluent buyers to making more affordable EVs for the masses. The firm's three-pronged business model approach of direct sales, servicing, and charging its EVs sets it apart from other carmakers. Tesla, which is touted as the clean energy revolutionary automaker, is much more than just a car manufacturer.
Stock Name Country Market Cap PE Ratio
General Motors (GM) United States $56.686B 5.84
Ford Motor (F) United States $55.724B 8.56
Harley-Davidson (HOG) United States $6.966B 9.85
Polaris (PII) United States $6.756B 12.78
IAA (IAA) United States $5.055B 16.15
Fisker (FSR) United States $2.380B 0.00
Lion Electric (LEV) Canada $0.537B 0.00
Volta (VLTA) United States $0.087B 0.00
Bird Global (BRDS) United States $0.067B 0.00
Lightning EMotors (ZEV) United States $0.045B 0.00